DW7955 Weather Reports


time (UTC)temp
C
wind
direction
speed
KPH
gust
KPH
rain 1hr
cm
rain 24hr
cm
rain mn
cm
humidity
%
barometer
mb
20260510130007 10 129 0.0 3.2 0.00 0.00 0.00 82 1016.9
20260510124507 9 128 0.0 0.0 0.00 0.00 0.00 83 1016.8
20260510123006 9 128 0.0 0.0 0.00 0.00 0.00 83 1016.9
20260510121504 9 128 0.0 0.0 0.00 0.00 0.00 84 1016.7
20260510120002 9 128 0.0 0.0 0.00 0.00 0.00 83 1016.7
20260510114502 9 128 0.0 0.0 0.00 0.00 0.00 84 1016.6
20260510113001 9 128 0.0 0.0 0.00 0.00 0.00 84 1016.5
20260510111609 9 128 0.0 0.0 0.00 0.00 0.00 84 1016.5
20260510110059 9 128 0.0 4.8 0.00 0.00 0.00 84 1016.5
20260510104620 9 55 1.6 9.7 0.00 0.00 0.00 84 1016.4
20260510103058 9 54 4.8 8.0 0.00 0.00 0.00 84 1016.6
20260510101607 9 10 3.2 9.7 0.00 0.00 0.00 84 1016.5
20260510094605 9 11 6.4 11.3 0.00 0.00 0.00 83 1016.5
20260510093054 9 7 9.7 17.7 0.00 0.00 0.00 83 1016.4
20260510091551 10 5 8.0 17.7 0.00 0.00 0.00 82 1016.2
20260510090052 10 36 9.7 19.3 0.00 0.00 0.00 82 1016.1
20260510084548 10 43 8.0 17.7 0.00 0.00 0.00 82 1016.2
20260510083047 10 6 8.0 19.3 0.00 0.00 0.00 82 1016.0
20260510081545 10 339 8.0 14.5 0.00 0.00 0.00 82 1015.8
20260510080043 10 40 9.7 17.7 0.00 0.00 0.00 81 1015.6
20260510074545 10 43 6.4 19.3 0.00 0.00 0.00 81 1015.4
20260510073044 10 32 14.5 27.4 0.00 0.00 0.00 80 1015.3
20260510071539 10 31 16.1 32.2 0.00 0.00 0.00 78 1015.3
20260510070037 10 57 17.7 35.4 0.00 0.00 0.00 75 1015.3
20260510064529 11 15 20.9 38.6 0.00 0.00 0.00 69 1014.6
20260510063026 11 40 24.1 38.6 0.00 0.00 0.00 66 1014.1
20260510061523 12 34 25.7 48.3 0.00 0.00 0.00 63 1014.0
20260510060020 12 10 22.5 45.1 0.00 0.00 0.00 62 1013.5
20260510054516 12 40 32.2 56.3 0.00 0.00 0.00 60 1012.7
20260510053013 12 32 27.4 49.9 0.00 0.00 0.00 58 1011.4
20260510051511 13 9 35.4 59.5 0.00 0.00 0.00 58 1010.5
20260510050014 13 15 33.8 54.7 0.00 0.00 0.00 56 1010.6
20260510044511 13 1 38.6 57.9 0.00 0.00 0.00 53 1010.4
20260510043010 13 7 35.4 67.6 0.00 0.00 0.00 54 1010.2
20260510041506 14 346 38.6 67.6 0.00 0.00 0.00 53 1009.7
20260510040002 15 340 38.6 61.2 0.00 0.00 0.00 51 1009.3
20260510034600 17 9 27.4 43.5 0.00 0.00 0.00 40 1008.9
20260510033126 18 18 4.8 12.9 0.00 0.00 0.00 34 1007.7
20260510031622 19 80 11.3 19.3 0.00 0.00 0.00 32 1006.7
20260510030101 18 58 11.3 16.1 0.00 0.00 0.00 32 1006.5
20260510024557 19 59 11.3 17.7 0.00 0.00 0.00 31 1006.1
20260510023056 20 34 9.7 14.5 0.00 0.00 0.00 29 1005.6
20260510021556 20 53 12.9 17.7 0.00 0.00 0.00 28 1005.2
20260510020055 21 74 8.0 16.1 0.00 0.00 0.00 25 1004.7
20260510014606 21 75 6.4 14.5 0.00 0.00 0.00 24 1004.2
20260510013054 21 117 6.4 11.3 0.00 0.00 0.00 22 1004.3
20260510011559 22 32 4.8 27.4 0.00 0.00 0.00 23 1004.7
20260510004557 21 336 6.4 22.5 0.00 0.00 0.00 27 1005.4
20260510003059 21 7 14.5 35.4 0.00 0.00 0.00 25 1005.0
20260510001552 22 36 14.5 25.7 0.00 0.00 0.00 24 1004.5
20260510000055 22 9 16.1 35.4 0.00 0.00 0.00 21 1004.4
20260509234605 23 13 30.6 51.5 0.00 0.00 0.00 20 1003.6
20260509233050 23 37 9.7 37.0 0.00 0.00 0.00 19 1003.2
20260509231550 23 65 14.5 27.4 0.00 0.00 0.00 18 1002.7
20260509230052 23 49 17.7 25.7 0.00 0.00 0.00 18 1002.8
20260509224549 23 22 14.5 32.2 0.00 0.00 0.00 18 1002.5
20260509223056 23 1 19.3 43.5 0.00 0.00 0.00 18 1002.6
20260509221551 25 10 20.9 35.4 0.00 0.00 0.00 16 1002.4
20260509220058 27 176 11.3 19.3 0.00 0.00 0.00 12 1001.8
20260509214547 27 125 6.4 11.3 0.00 0.00 0.00 12 1001.8
20260509213045 26 200 4.8 19.3 0.00 0.00 0.00 12 1002.0
20260509211545 27 136 4.8 11.3 0.00 0.00 0.00 12 1002.1
20260509210041 26 242 3.2 14.5 0.00 0.00 0.00 14 1002.5
20260509204547 27 291 6.4 14.5 0.00 0.00 0.00 12 1002.8
20260509203038 27 252 1.6 12.9 0.00 0.00 0.00 14 1003.0
20260509201532 26 148 8.0 20.9 0.00 0.00 0.00 14 1003.6
20260509200037 26 351 6.4 17.7 0.00 0.00 0.00 13 1003.9
20260509194537 26 241 6.4 16.1 0.00 0.00 0.00 14 1004.2
20260509193035 26 217 11.3 27.4 0.00 0.00 0.00 14 1004.5
20260509191524 25 246 6.4 17.7 0.00 0.00 0.00 15 1004.7
20260509190023 26 219 14.5 25.7 0.00 0.00 0.00 15 1005.0
20260509184520 26 261 4.8 17.7 0.00 0.00 0.00 16 1005.1
20260509183016 25 314 11.3 24.1 0.00 0.00 0.00 16 1005.3
20260509181513 25 298 9.7 24.1 0.00 0.00 0.00 16 1005.6
20260509180010 24 253 8.0 30.6 0.00 0.00 0.00 17 1005.6
20260509174509 24 253 4.8 27.4 0.00 0.00 0.00 16 1005.9
20260509173005 23 329 3.2 22.5 0.00 0.00 0.00 19 1006.1
20260509171506 23 271 4.8 20.9 0.00 0.00 0.00 18 1006.2
20260509170003 23 262 11.3 27.4 0.00 0.00 0.00 18 1006.4
20260509164600 23 286 4.8 17.7 0.00 0.00 0.00 19 1006.5
20260509163105 22 271 12.9 25.7 0.00 0.00 0.00 20 1006.5
20260509161552 22 299 4.8 16.1 0.00 0.00 0.00 26 1006.6
20260509160049 21 328 9.7 20.9 0.00 0.00 0.00 27 1006.8
20260509154557 20 237 4.8 19.3 0.00 0.00 0.00 33 1006.8
20260509153040 18 298 6.4 16.1 0.00 0.00 0.00 35 1006.8
20260509151537 17 247 4.8 14.5 0.00 0.00 0.00 38 1007.0
20260509150032 16 240 3.2 6.4 0.00 0.00 0.00 49 1007.3
20260509144530 15 240 3.2 6.4 0.00 0.00 0.00 51 1007.3
20260509143031 15 221 1.6 6.4 0.00 0.00 0.00 52 1007.2
20260509141523 13 276 4.8 9.7 0.00 0.00 0.00 54 1007.7
20260509140019 12 227 3.2 8.0 0.00 0.00 0.00 57 1007.6
20260509134516 12 244 4.8 8.0 0.00 0.00 0.00 58 1007.6
20260509133014 11 351 1.6 8.0 0.00 0.00 0.00 60 1007.8
20260509131526 10 351 1.6 6.4 0.00 0.00 0.00 65 1007.7